sat.trackr.live / text

‹ back to catalog

STARLINK-4641

NORAD 53730 · 2022-107AG

PAYLOAD ACTIVE UNKNOWN

§ Identity

Operator
Country
US
Launch date
2022-09-05
Launch site
AFETR
Launch vehicle
Mass (kg)
RCS (m²)

Purposes: comms

External: N2YO · Heavens-Above · Gunter

§ Orbital elements

Epoch: 2026-09-20T21:37:46.740288Z

Period
93.85 min
Inclination
53.1598°
Eccentricity
0.0001197
Mean motion
15.34393894 rev/d
Perigee alt
461.9 km
Apogee alt
463.5 km
Semi-major
6,840.9 km
B*
2.4926e-5
RAAN
81.7039°
Arg perigee
82.0220°
Mean anomaly
278.0919°
Rev number
22,424

§ Raw data

STARLINK-46411 53730U 22107AG  26263.90123542  .00000466  00000+0  24926-4 0  99972 53730  53.1598  81.7039 0001197  82.0220 278.0919 15.34393894224240

JSON: /api/v1/satellites/53730 · /tle

For live sub-satellite position, see the globe view (requires WebGL).

§ Visibility from observer

Set your observer location to see the next 7 days of passes ≥ 10°. The values pass through the URL so the page stays shareable.

No JS? Fill the form by hand. The geolocation button needs JavaScript.